Regional Weather Roundup
Issued by NWS

Home | Current Version | Previous Version | Graphics & Text | Print | Product List | Glossary On
Versions: 1 2 3 4 5 6 7 8 9 10 11 12 13 14 15 16 17 18 19 20 21 22 23 24 25 26 27 28 29 30 31 32 33 34 35 36 37 38 39 40 41 42 43 44 45 46 47 48 49 50
436
ASUS45 KBOU 260907
RWRCO

WEATHER ROUNDUP FOR COLORADO
NATIONAL WEATHER SERVICE DENVER/BOULDER CO
300 AM MDT FRI MAY 26 2017

NOTE: "FAIR" INDICATES FEW OR NO CLOUDS BELOW 12000 FEET WITH NO
SIGNIFICANT WEATHER AND/OR OBSTRUCTIONS TO VISIBILITY.

COZ001>005-013-030-031-261000-
...NORTHWEST COLORADO...

CITY           SKY/WX    TMP DP  RH WIND       PRES   REMARKS
CRAIG          FAIR      44  38  79 E8        29.93S
HAYDEN         FAIR      39  34  81 E8        29.94F
MEEKER         FAIR      39  37  92 NE5       29.92S
RABBIT EARS PA FAIR      32  32 100 S8        30.09S WCI  25
STEAMBOAT SPGS FAIR      37  35  95 CALM      29.97S
WALDEN           N/A     34  32  93 E6        30.02F WCI  29
$$

COZ006>008-011-261000-
...WEST CENTRAL VALLEYS...

CITY           SKY/WX    TMP DP  RH WIND       PRES   REMARKS
GRAND JUNCTION CLOUDY    61  42  49 SE23G31   29.85S
MONTROSE       FAIR      55  40  56 SE10      29.93F
EAGLE          CLOUDY    46  43  89 N3        30.02R
RIFLE          FAIR      53  42  66 E8        29.91F
DELTA          FAIR      55  46  73 N8        29.93R
NUCLA          MOCLDY    54  36  50 S3        29.93F
$$

COZ017>023-064>068-261000-
...SOUTHWEST COLORADO...

CITY           SKY/WX    TMP DP  RH WIND       PRES   REMARKS
DURANGO          N/A    N/A N/A N/A MISG      29.97R
CORTEZ         FAIR      49  34  56 CALM      29.92R
PAGOSA SPRINGS NOT AVBL
TELLURIDE      MOCLDY    43  37  80 SE12      30.10S
WOLF CREEK PAS FAIR      34  27  75 S15G24    30.25S WCI  24
$$

COZ009-010-012-014-032>034-037-058>063-261000-
...CENTRAL COLORADO...

CITY           SKY/WX    TMP DP  RH WIND       PRES   REMARKS
ASPEN          LGT RAIN  45  42  89 VRB7      30.06R
BUENA VISTA    CLOUDY    44  38  80 S5        30.05R
COPPER MTN     FAIR      34  27  75 W5        30.17S WCI  30
BERTHOUD PASS  FAIR      27  18  69 W15G29    30.15S WCI  15
COTTONWOOD PAS MOCLDY    43  32  65 SW8       30.12R
GUNNISON       LGT RAIN  44  41  89 E3        30.07R
KREMMLING      FAIR      41  37  87 SE5       30.03S
LEADVILLE      LGT SNOW  35  31  85 W12G23    30.12R FOG     WCI  27
MONARCH PASS   FOG       32  30  93 SW23      30.30R VSB<1/4 WCI  19
SALIDA         FAIR      46  38  72 W6        30.10S
SUNLIGHT       CLOUDY    32  32 100 SW16G26   30.14R WCI  21
WILKERSON PASS FAIR      34  30  86 SW7       30.17S WCI  28
$$

COZ069>075-261000-
...SAN LUIS VALLEY/SANGRE DE CRISTO MOUNTAINS...

CITY           SKY/WX    TMP DP  RH WIND       PRES   REMARKS
ALAMOSA        FAIR      47  35  63 NE7       30.01S
DEL NORTE      FAIR      42  33  69 NE7       30.05R
LA VETA PASS   FAIR      39  28  65 MISG      30.23S
SAGUACHE       MOCLDY    45  37  76 NW12      30.07R
$$

COZ035-036-038>040-261000-
...NORTHERN COLORADO FRONT RANGE...

CITY           SKY/WX    TMP DP  RH WIND       PRES   REMARKS
DENVER INTL AP MOCLDY    46  43  89 SW8       29.95R
DMNS CITY PARK   N/A     46  46 100 SW3       29.97R
AURORA         PTCLDY    45  44  99 SW6       29.97R
FRONT RANGE AP FAIR      46  45  93 W6        29.95S
ERIE MUNI ARPT FAIR      46  44  94 CALM      29.96R
BOULDER MUN AP FAIR      46  46 100 SW6       29.95S
CENTENNIAL     FAIR      46  44  93 SW3       29.98R
BROOMFIELD     FAIR      45  43  93 W6        29.97S
FORT COLLINS   FAIR      47  45  93 NE8       29.96R
LONGMONT       FAIR      46  44  91 CALM      29.97R
$$

COZ041-046-047-076>085-087-088-261000-
...PIKES PEAK/PALMER DIVIDE AND SOUTHERN FOOTHILLS...

CITY           SKY/WX    TMP DP  RH WIND       PRES   REMARKS
COLO. SPRINGS  MOCLDY    50  46  86 CALM      29.99F
A. F. ACADEMY  CLOUDY    48  44  87 NE7       29.99S
SCHRIEVER AFB  LGT RAIN  46  45  93 N13G22    30.01
CHEYENNE MTN   MOCLDY    50  42  74 SW12      29.94
ELLICOTT       TSTM     N/A N/A N/A N16       30.01R
FALCON         RAIN      43  41  93 N8G16     30.02F
FORT CARSON    FAIR      49  46  88 CALM      29.97S
LIMON          LGT RAIN  47  46  97 NW15      29.97R
MONUMENT HILL  CLOUDY    39  39 100 SE8       30.03F
CANON CITY     NOT AVBL
WALSENBURG     FAIR      50  45  81 CALM      29.98R
TRINIDAD       FAIR      48  42  80 W3        29.95S
$$

COZ042>045-048>051-090-091-261000-
...NORTHEAST COLORADO...

CITY           SKY/WX    TMP DP  RH WIND       PRES   REMARKS
GREELEY ARPT   FAIR      47  42  83 N10       29.95R
AKRON          LGT RAIN  51  48  89 SW12      29.88F
BURLINGTON     FAIR      53  50  89 NW10      29.86R
WRAY           CLOUDY    52  50  93 SW6       29.85R
YUMA           PTSUNNY   50  46  87 W13       29.89R
STERLING       FAIR      50  46  87 N7        29.89R
HOLYOKE        NOT AVBL
FORT MORGAN    FAIR      49  47  90 NW14      29.91R
$$

COZ086-089-092>099-261000-
...SOUTHEAST COLORADO...

CITY           SKY/WX    TMP DP  RH WIND       PRES   REMARKS
PUEBLO         LGT RAIN  57  49  74 NW10      29.94R
LA JUNTA       MOCLDY    54  49  83 NW10      29.91R
LAMAR          FAIR      49  46  90 SW6       29.83R
SPRINGFIELD      N/A     49  46  90 NW12      29.86R
$$




USA.gov is the U.S. government's official web portal to all federal, state and local government web resources and services.